period_start,C,m1,H,J0,J1,J2,J3,J4,J5,JA,JB,JC,JD,JJ,JK,JN,#
2014-08-22 00:00:27,0.01,6.65,0.00,23.52,28.07,30.37,9.61,49.89,1015.15,2030.02,1522.03,2010.00,2073.99,499.67,494.81,18.26,0000 0000 0000 0000 000000
2014-08-22 00:05:28,0.00,6.66,0.00,23.51,28.06,30.37,9.69,49.84,1015.15,2030.03,1522.01,2010.01,2073.99,500.07,495.27,18.31,0000 0000 0000 0000 000000
2014-08-22 00:10:29,0.00,6.66,0.00,23.53,28.05,30.37,9.60,49.73,1015.17,2030.07,1522.00,2010.01,2073.99,500.20,495.51,18.35,0000 0000 0000 0000 000000
2014-08-22 00:15:30,-0.00,6.66,0.00,23.52,28.05,30.37,9.62,49.73,1015.16,2030.06,1522.00,2010.00,2073.98,499.48,494.58,18.39,0000 0000 0000 0000 000000
2014-08-22 00:20:31,0.06,6.66,0.00,23.51,28.05,30.37,9.65,49.84,1015.15,2030.07,1521.72,2009.89,2073.63,499.81,494.92,18.43,0000 0000 0000 0000 000000
2014-08-22 00:25:31,0.16,6.66,0.00,23.52,28.04,30.36,9.63,49.84,1015.16,2030.34,1521.04,2009.18,2073.05,499.65,494.97,18.47,0000 0000 0000 0000 000000
2014-08-22 00:30:33,0.04,6.67,0.00,23.52,28.03,30.34,9.59,49.83,1015.16,2030.56,1521.00,2009.01,2073.00,499.62,494.86,18.52,0000 0000 0000 0000 000000
2014-08-22 00:35:34,0.01,6.67,0.00,23.52,28.02,30.34,9.68,49.80,1015.16,2030.74,1520.98,2009.00,2072.98,500.07,495.01,18.56,0000 0000 0000 0000 000000
2014-08-22 00:40:35,0.03,6.67,0.00,23.51,28.02,30.36,9.60,49.85,1015.16,2030.65,1520.72,2008.99,2072.94,499.55,494.63,18.60,0000 0000 0000 0000 000000
2014-08-22 00:45:36,0.06,6.67,0.00,23.54,28.02,30.35,9.65,49.63,1015.16,2030.80,1520.27,2008.97,2072.81,500.19,495.27,18.64,0000 0000 0000 0000 000000
2014-08-22 00:50:38,0.07,6.67,0.00,23.56,28.02,30.36,9.67,49.68,1015.16,2030.88,1520.03,2008.68,2072.30,500.06,495.14,18.68,0000 0000 0000 0000 000000
2014-08-22 00:55:39,-0.03,6.67,0.00,23.55,28.02,30.33,9.66,49.76,1015.16,2030.58,1520.00,2008.09,2072.00,500.24,495.29,18.72,0000 0000 0000 0000 000000
2014-08-22 01:00:40,0.05,6.67,0.00,23.54,28.02,30.33,9.68,49.71,1015.18,2030.72,1520.00,2008.02,2072.00,499.56,494.69,18.77,0000 0000 0000 0000 000000
2014-08-22 01:05:41,0.02,6.67,0.00,23.55,28.02,30.35,9.64,49.72,1015.20,2030.87,1519.99,2008.01,2072.00,499.71,495.04,18.81,0000 0000 0000 0000 000000
2014-08-22 01:10:43,0.00,6.68,0.00,23.57,28.02,30.34,9.70,49.79,1015.24,2030.91,1519.96,2008.00,2072.00,500.28,495.29,18.85,0000 0000 0000 0000 000000
2014-08-22 01:15:44,0.00,6.67,0.00,23.55,28.02,30.35,9.63,49.66,1015.28,2030.79,1519.75,2008.00,2071.98,499.84,494.92,18.89,0000 0000 0000 0000 000000
2014-08-22 01:20:45,0.03,6.68,0.00,23.56,28.02,30.34,9.65,49.72,1015.39,2030.80,1519.33,2008.00,2071.95,500.00,495.20,18.93,0000 0000 0000 0000 000000
2014-08-22 01:25:46,0.02,6.68,0.00,23.56,28.02,30.33,9.66,49.59,1015.39,2030.82,1519.02,2007.99,2071.93,500.26,495.37,18.98,0000 0000 0000 0000 000000
2014-08-22 01:30:48,0.01,6.68,0.00,23.55,28.02,30.34,9.67,49.67,1015.52,2030.85,1519.00,2007.97,2071.60,499.92,495.18,19.02,0000 0000 0000 0000 000000
2014-08-22 01:35:49,0.03,6.68,0.00,23.57,28.02,30.34,9.71,49.67,1015.62,2030.87,1519.00,2007.91,2071.21,499.93,495.19,19.06,0000 0000 0000 0000 000000
2014-08-22 01:40:50,0.03,6.68,0.00,23.56,28.02,30.33,9.63,49.68,1015.64,2030.93,1518.97,2007.62,2071.08,499.30,494.70,19.10,0000 0000 0000 0000 000000
2014-08-22 01:45:52,0.04,6.68,0.00,23.58,28.02,30.35,9.60,49.48,1015.64,2030.91,1518.70,2007.24,2071.03,499.85,495.05,19.14,0000 0000 0000 0000 000000
2014-08-22 01:50:53,0.04,6.68,0.00,23.57,28.02,30.35,9.67,49.48,1015.64,2030.92,1518.14,2007.09,2071.03,499.84,495.10,19.18,0000 0000 0000 0000 000000
2014-08-22 01:55:54,0.01,6.69,0.00,23.57,28.02,30.36,9.60,49.47,1015.64,2030.98,1518.00,2007.09,2071.10,499.59,495.09,19.23,0000 0000 0000 0000 000000
2014-08-22 02:00:55,-0.01,6.69,0.00,23.58,28.02,30.35,9.59,49.62,1015.64,2030.97,1518.00,2007.06,2071.25,499.69,494.92,19.27,0000 0000 0000 0000 000000
2014-08-22 02:05:56,-0.00,6.68,0.00,23.59,28.02,30.34,9.69,49.59,1015.64,2030.98,1517.98,2007.14,2071.44,500.32,495.56,19.31,0000 0000 0000 0000 000000
2014-08-22 02:10:58,0.01,6.68,0.00,23.58,28.02,30.36,9.70,49.63,1015.64,2030.99,1517.95,2007.15,2071.34,500.07,495.33,19.35,0000 0000 0000 0000 000000
2014-08-22 02:15:59,0.00,6.69,0.00,23.59,28.02,30.35,9.65,49.58,1015.64,2030.98,1517.86,2007.14,2071.37,499.81,495.16,19.39,0000 0000 0000 0000 000000
2014-08-22 02:21:00,0.02,6.69,0.00,23.59,28.02,30.37,9.58,49.46,1015.65,2030.98,1517.66,2007.17,2071.46,500.16,495.48,19.44,0000 0000 0000 0000 000000
2014-08-22 02:26:01,0.02,6.69,0.00,23.60,28.02,30.34,9.63,49.50,1015.66,2030.98,1517.19,2007.14,2071.49,499.83,495.00,19.48,0000 0000 0000 0000 000000
2014-08-22 02:31:03,0.00,6.69,0.00,23.60,28.02,30.35,9.63,49.52,1015.67,2030.99,1517.25,2007.25,2071.35,499.58,494.90,19.52,0000 0000 0000 0000 000000
2014-08-22 02:36:04,0.00,6.69,0.00,23.61,28.02,30.34,9.60,49.49,1015.79,2030.99,1517.04,2007.25,2071.39,499.99,495.10,19.56,0000 0000 0000 0000 000000
2014-08-22 02:41:05,-0.03,6.69,0.00,23.62,28.02,30.34,9.68,49.48,1015.83,2030.99,1517.02,2007.44,2071.62,500.64,495.85,19.60,0000 0000 0000 0000 000000
2014-08-22 02:46:06,0.01,6.69,0.00,23.62,28.02,30.36,9.68,49.48,1016.00,2030.98,1517.02,2007.50,2071.50,499.99,495.37,19.65,0000 0000 0000 0000 000000
2014-08-22 02:51:07,0.00,6.69,0.00,23.62,28.02,30.35,9.67,49.40,1016.06,2030.99,1517.00,2007.47,2071.66,500.30,495.56,19.69,0000 0000 0000 0000 000000
2014-08-22 02:56:08,0.01,6.69,0.00,23.61,28.03,30.34,9.64,49.39,1016.08,2030.99,1517.00,2007.35,2071.64,500.13,495.73,19.73,0000 0000 0000 0000 000000
2014-08-22 03:01:10,-0.01,6.69,0.00,23.63,28.03,30.35,9.67,49.56,1016.07,2030.99,1516.99,2007.38,2071.57,500.11,495.61,19.77,0000 0000 0000 0000 000000
2014-08-22 03:06:11,-0.00,6.69,0.00,23.62,28.04,30.34,9.65,49.55,1016.11,2030.99,1516.94,2007.43,2071.82,499.82,495.32,19.81,0000 0000 0000 0000 000000
2014-08-22 03:11:12,0.06,6.69,0.00,23.62,28.04,30.36,9.63,49.43,1016.13,2030.99,1516.30,2007.37,2071.97,499.84,495.10,19.85,0000 0000 0000 0000 000000
2014-08-22 03:16:13,0.01,6.69,0.00,23.62,28.05,30.36,9.67,49.45,1016.13,2030.99,1516.01,2007.21,2071.98,499.90,495.42,19.90,0000 0000 0000 0000 000000
2014-08-22 03:21:14,0.01,6.69,0.00,23.62,28.05,30.36,9.65,49.44,1016.13,2030.99,1516.00,2007.13,2071.99,500.17,495.55,19.94,0000 0000 0000 0000 000000
2014-08-22 03:26:15,0.00,6.69,0.00,23.62,28.05,30.37,9.65,49.41,1016.13,2030.99,1516.00,2007.13,2071.98,499.96,495.42,19.98,0000 0000 0000 0000 000000
2014-08-22 03:31:16,0.00,6.69,0.00,23.65,28.05,30.37,9.69,49.53,1016.13,2030.99,1515.98,2007.07,2071.99,499.99,495.30,20.02,0000 0000 0000 0000 000000
2014-08-22 03:36:17,0.02,6.69,0.00,23.66,28.05,30.37,9.71,49.37,1016.13,2030.99,1515.72,2007.06,2071.99,499.97,495.37,20.06,0000 0000 0000 0000 000000
2014-08-22 03:41:18,-0.01,6.69,0.00,23.66,28.05,30.37,9.64,49.33,1016.19,2030.99,1515.68,2007.05,2071.99,499.91,495.27,20.11,0000 0000 0000 0000 000000
2014-08-22 03:46:19,-0.01,6.69,0.00,23.66,28.05,30.38,9.66,49.32,1016.26,2030.99,1515.88,2007.09,2071.98,500.22,495.67,20.15,0000 0000 0000 0000 000000
2014-08-22 03:51:21,0.04,6.69,0.00,23.67,28.05,30.38,9.68,49.48,1016.24,2030.99,1515.64,2007.05,2071.98,500.76,496.14,20.19,0000 0000 0000 0000 000000
2014-08-22 03:56:22,-0.01,6.69,0.00,23.67,28.05,30.38,9.69,49.31,1016.22,2031.00,1515.61,2007.02,2071.98,500.34,495.61,20.23,0000 0000 0000 0000 000000
2014-08-22 04:01:23,0.01,6.69,0.00,23.67,28.05,30.36,9.69,49.31,1016.33,2031.01,1515.48,2007.03,2071.98,500.35,495.72,20.27,0000 0000 0000 0000 000000
2014-08-22 04:06:24,-0.01,6.69,0.00,23.67,28.05,30.38,9.62,49.28,1016.49,2031.00,1515.40,2007.05,2071.99,499.82,495.21,20.31,0000 0000 0000 0000 000000
2014-08-22 04:11:25,-0.01,6.69,0.00,23.69,28.05,30.38,9.65,49.24,1016.57,2031.01,1515.67,2007.03,2071.85,500.16,495.68,20.36,0000 0000 0000 0000 000000
2014-08-22 04:16:26,0.00,6.69,0.00,23.72,28.05,30.38,9.63,49.32,1016.61,2031.00,1515.85,2007.03,2071.76,499.86,495.35,20.40,0000 0000 0000 0000 000000
2014-08-22 04:21:28,0.00,6.69,0.00,23.74,28.06,30.39,9.64,49.36,1016.62,2031.00,1515.91,2007.03,2071.51,499.56,494.89,20.44,0000 0000 0000 0000 000000
2014-08-22 04:26:29,0.00,6.69,0.00,23.75,28.07,30.38,9.67,49.35,1016.60,2031.00,1515.94,2007.03,2071.40,500.11,495.53,20.48,0000 0000 0000 0000 000000
2014-08-22 04:31:30,0.00,6.69,0.00,23.75,28.07,30.39,9.63,49.31,1016.58,2031.00,1515.94,2007.02,2071.37,500.36,495.88,20.52,0000 0000 0000 0000 000000
2014-08-22 04:36:31,0.02,6.69,0.00,23.77,28.07,30.40,9.61,49.30,1016.61,2030.99,1515.86,2007.01,2071.30,499.97,495.43,20.57,0000 0000 0000 0000 000000
2014-08-22 04:41:32,-0.00,6.69,0.00,23.79,28.09,30.40,9.60,49.31,1016.62,2030.99,1515.85,2007.00,2071.12,499.40,494.64,20.61,0000 0000 0000 0000 000000
2014-08-22 04:46:34,0.00,6.69,0.00,23.80,28.10,30.40,9.68,49.21,1016.62,2030.98,1515.85,2007.00,2071.04,500.07,495.34,20.65,0000 0000 0000 0000 000000
2014-08-22 04:51:35,0.01,6.69,0.00,23.82,28.10,30.41,9.61,49.29,1016.62,2030.99,1515.79,2007.00,2071.01,500.30,495.46,20.69,0000 0000 0000 0000 000000
2014-08-22 04:56:36,-0.01,6.69,0.00,23.84,28.12,30.42,9.64,49.32,1016.62,2030.97,1515.88,2006.99,2071.00,499.97,495.25,20.73,0000 0000 0000 0000 000000
2014-08-22 05:01:37,0.02,6.69,0.00,23.86,28.12,30.43,9.65,49.42,1016.63,2030.97,1515.71,2006.99,2070.99,499.89,495.26,20.77,0000 0000 0000 0000 000000
2014-08-22 05:06:38,-0.03,6.69,0.00,23.86,28.14,30.45,9.61,49.32,1016.63,2030.91,1515.74,2006.98,2070.98,500.10,495.40,20.82,0000 0000 0000 0000 000000
2014-08-22 05:11:40,-0.01,6.69,0.00,23.89,28.15,30.46,9.65,49.31,1016.63,2030.86,1515.94,2006.98,2070.97,499.91,494.99,20.86,0000 0000 0000 0000 000000
2014-08-22 05:16:41,0.03,6.69,0.00,23.87,28.16,30.46,9.64,49.33,1016.63,2030.82,1515.51,2006.92,2070.96,499.88,495.18,20.90,0000 0000 0000 0000 000000
2014-08-22 05:21:42,-0.03,6.69,0.00,23.86,28.17,30.47,9.70,49.33,1016.69,2030.44,1515.51,2006.83,2070.71,500.10,495.56,20.94,0000 0000 0000 0000 000000
2014-08-22 05:26:43,-0.05,6.69,0.00,23.89,28.17,30.48,9.66,49.32,1016.74,2030.16,1515.69,2006.67,2070.35,500.24,495.34,20.98,0000 0000 0000 0000 000000
2014-08-22 05:31:44,0.01,6.69,0.00,23.93,28.18,30.49,9.69,49.35,1016.80,2030.09,1515.63,2006.51,2070.33,500.24,495.47,21.03,0000 0000 0000 0000 000000
2014-08-22 05:36:45,0.01,6.69,0.00,23.94,28.20,30.51,9.67,49.52,1017.01,2030.02,1515.66,2006.16,2070.06,499.79,495.16,21.07,0000 0000 0000 0000 000000
2014-08-22 05:41:46,0.05,6.69,0.00,23.96,28.20,30.52,9.60,49.38,1017.08,2030.00,1515.41,2006.02,2070.00,499.44,494.79,21.11,0000 0000 0000 0000 000000
2014-08-22 05:46:48,-0.00,6.69,0.00,23.96,28.22,30.52,9.69,49.55,1017.10,2030.00,1515.22,2006.01,2070.00,500.00,495.33,21.15,0000 0000 0000 0000 000000
2014-08-22 05:51:49,0.01,6.69,0.00,23.95,28.22,30.54,9.60,49.34,1017.10,2030.00,1515.06,2006.01,2070.00,500.07,495.41,21.19,0000 0000 0000 0000 000000
2014-08-22 05:56:49,0.00,6.69,0.00,23.97,28.23,30.55,9.62,49.47,1017.10,2030.00,1515.02,2006.00,2070.00,500.10,495.41,21.23,0000 0000 0000 0000 000000
2014-08-22 06:01:50,0.00,6.69,0.00,23.97,28.25,30.56,9.61,49.48,1017.11,2030.00,1515.00,2006.00,2070.00,499.62,495.07,21.28,0000 0000 0000 0000 000000
2014-08-22 06:06:51,0.00,6.69,0.00,23.97,28.25,30.57,9.68,49.50,1017.11,2030.00,1515.00,2006.00,2070.00,499.95,495.25,21.32,0000 0000 0000 0000 000000
2014-08-22 06:11:52,-0.00,6.69,0.00,23.99,28.26,30.57,9.66,49.35,1017.11,2029.99,1515.00,2005.99,2069.98,499.69,494.91,21.36,0000 0000 0000 0000 000000
2014-08-22 06:16:54,0.00,6.69,0.00,24.02,28.27,30.59,9.58,49.41,1017.11,2029.99,1514.99,2005.98,2069.95,499.26,494.73,21.40,0000 0000 0000 0000 000000
2014-08-22 06:21:55,0.01,6.69,0.00,24.03,28.28,30.60,9.57,49.44,1017.13,2029.98,1514.99,2005.97,2069.81,499.58,494.79,21.44,0000 0000 0000 0000 000000
2014-08-22 06:26:57,0.00,6.69,0.00,24.04,28.30,30.61,9.59,49.44,1017.17,2029.96,1514.99,2005.94,2069.59,499.76,494.98,21.49,0000 0000 0000 0000 000000
2014-08-22 06:31:58,0.01,6.69,0.00,24.07,28.30,30.61,9.59,49.35,1017.24,2029.95,1514.99,2005.93,2069.37,499.64,494.85,21.53,0000 0000 0000 0000 000000
2014-08-22 06:36:59,0.03,6.69,0.00,24.07,28.31,30.63,9.68,49.51,1017.23,2029.90,1514.94,2005.57,2069.15,500.12,495.29,21.57,0000 0000 0000 0000 000000
2014-08-22 06:42:00,-0.00,6.69,0.00,24.07,28.32,30.63,9.63,49.50,1017.49,2029.88,1514.97,2005.53,2069.06,499.96,495.30,21.61,0000 0000 0000 0000 000000
2014-08-22 06:47:01,-0.02,6.69,0.00,24.10,28.33,30.65,9.68,49.48,1017.53,2029.77,1514.98,2005.40,2069.00,500.32,495.55,21.65,0000 0000 0000 0000 000000
2014-08-22 06:52:03,0.02,6.70,0.00,24.11,28.35,30.66,9.63,49.49,1017.43,2029.78,1514.85,2005.16,2069.04,500.00,495.34,21.70,0000 0000 0000 0000 000000
2014-08-22 06:57:05,-0.02,6.69,0.00,24.10,28.35,30.67,9.66,49.35,1017.46,2029.58,1514.82,2005.06,2069.01,499.84,494.95,21.74,0000 0000 0000 0000 000000
2014-08-22 07:02:06,-0.03,6.69,0.00,24.12,28.37,30.67,9.64,49.52,1017.54,2029.35,1514.82,2005.01,2069.00,499.87,495.15,21.78,0000 0000 0000 0000 000000
2014-08-22 07:07:07,-0.02,6.69,0.00,24.14,28.37,30.68,9.59,49.42,1017.58,2029.10,1514.76,2005.01,2069.00,499.82,494.95,21.82,0000 0000 0000 0000 000000
2014-08-22 07:12:08,-0.00,6.69,0.00,24.16,28.39,30.69,9.64,49.44,1017.59,2029.10,1514.73,2005.00,2068.99,500.06,495.36,21.86,0000 0000 0000 0000 000000
2014-08-22 07:17:09,-0.02,6.69,0.00,24.20,28.40,30.71,9.62,49.46,1017.59,2029.06,1514.62,2005.00,2068.97,499.32,494.55,21.90,0000 0000 0000 0000 000000
2014-08-22 07:22:10,0.02,6.69,0.00,24.22,28.42,30.71,9.62,49.49,1017.59,2029.03,1514.55,2005.00,2068.96,500.40,495.54,21.95,0000 0000 0000 0000 000000
2014-08-22 07:27:11,0.01,6.69,0.00,24.25,28.42,30.72,9.60,49.48,1017.59,2029.00,1514.63,2005.00,2068.59,499.33,494.40,21.99,0000 0000 0000 0000 000000
2014-08-22 07:32:12,0.02,6.69,0.00,24.29,28.44,30.74,9.61,49.44,1017.59,2029.00,1514.38,2004.98,2068.34,499.58,494.73,22.03,0000 0000 0000 0000 000000
2014-08-22 07:37:13,0.01,6.69,0.00,24.29,28.45,30.74,9.63,49.33,1017.59,2029.00,1514.23,2004.98,2068.28,500.39,495.51,22.07,0000 0000 0000 0000 000000
2014-08-22 07:42:14,0.01,6.69,0.00,24.34,28.47,30.76,9.65,49.38,1017.59,2029.00,1514.10,2004.97,2068.12,500.08,495.08,22.11,0000 0000 0000 0000 000000
2014-08-22 07:47:15,0.03,6.70,0.00,24.37,28.48,30.76,9.66,49.46,1017.61,2028.99,1514.04,2004.77,2068.05,499.88,494.62,22.16,0000 0000 0000 0000 000000
2014-08-22 07:52:16,0.01,6.70,0.00,24.38,28.50,30.79,9.59,49.30,1017.61,2028.99,1514.00,2004.49,2068.01,500.07,495.00,22.20,0000 0000 0000 0000 000000
2014-08-22 07:57:17,0.03,6.70,0.00,24.39,28.52,30.81,9.66,49.32,1017.66,2028.99,1513.99,2004.09,2068.01,500.09,494.97,22.24,0000 0000 0000 0000 000000
2014-08-22 08:02:18,0.00,6.70,0.00,24.41,28.53,30.82,9.58,49.24,1017.77,2028.99,1513.99,2004.03,2068.00,499.74,494.59,22.28,0000 0000 0000 0000 000000
2014-08-22 08:07:19,-0.00,6.70,0.00,24.45,28.55,30.83,9.69,49.41,1017.84,2028.98,1513.97,2004.02,2068.00,500.35,495.20,22.32,0000 0000 0000 0000 000000
2014-08-22 08:12:20,-0.01,6.70,0.00,24.46,28.56,30.84,9.70,49.37,1018.00,2028.93,1513.95,2004.00,2067.99,499.90,494.78,22.36,0000 0000 0000 0000 000000
2014-08-22 08:17:22,0.01,6.70,0.00,24.48,28.57,30.87,9.64,49.33,1018.04,2028.90,1513.88,2004.00,2067.96,500.06,495.07,22.41,0000 0000 0000 0000 000000
2014-08-22 08:22:23,-0.01,6.70,0.00,24.51,28.60,30.88,9.64,49.23,1018.07,2028.80,1513.91,2004.00,2067.87,500.03,494.97,22.45,0000 0000 0000 0000 000000
2014-08-22 08:27:24,-0.04,6.70,0.00,24.54,28.61,30.89,9.60,49.16,1018.08,2028.52,1513.77,2004.00,2067.61,499.96,494.93,22.49,0000 0000 0000 0000 000000
2014-08-22 08:32:25,0.02,6.70,0.00,24.58,28.62,30.90,9.70,49.36,1018.08,2028.28,1513.66,2003.97,2067.31,500.45,495.38,22.53,0000 0000 0000 0000 000000
2014-08-22 08:37:26,-0.03,6.69,0.00,24.61,28.64,30.91,9.65,49.22,1018.08,2028.12,1513.61,2003.98,2067.08,500.18,494.91,22.57,0000 0000 0000 0000 000000
2014-08-22 08:42:27,0.02,6.70,0.00,24.65,28.66,30.95,9.64,49.33,1018.08,2028.04,1513.33,2003.88,2067.01,499.88,494.44,22.62,0000 0000 0000 0000 000000
2014-08-22 08:47:28,0.04,6.70,0.00,24.68,28.68,30.96,9.60,49.26,1018.08,2028.01,1513.24,2003.55,2067.00,499.98,494.77,22.66,0000 0000 0000 0000 000000
2014-08-22 08:52:29,0.02,6.70,0.00,24.70,28.70,30.99,9.61,49.30,1018.09,2028.00,1513.04,2003.22,2067.00,499.95,494.63,22.70,0000 0000 0000 0000 000000
2014-08-22 08:57:30,0.01,6.70,0.00,24.72,28.72,31.01,9.61,49.33,1018.09,2028.00,1513.02,2003.04,2066.99,499.89,494.50,22.74,0000 0000 0000 0000 000000
2014-08-22 09:02:31,0.00,6.70,0.00,24.73,28.74,31.02,9.61,49.14,1018.09,2028.00,1513.02,2003.01,2066.96,500.01,494.58,22.78,0000 0000 0000 0000 000000
2014-08-22 09:07:33,0.00,6.70,0.00,24.75,28.76,31.05,9.61,49.27,1018.10,2028.00,1513.00,2003.00,2066.83,500.23,494.83,22.83,0000 0000 0000 0000 000000
2014-08-22 09:12:34,0.00,6.70,0.00,24.76,28.78,31.07,9.68,49.20,1018.16,2027.99,1513.00,2003.00,2066.73,500.05,494.36,22.87,0000 0000 0000 0000 000000
2014-08-22 09:17:35,0.01,6.70,0.00,24.77,28.80,31.10,9.64,49.19,1018.41,2027.98,1512.99,2002.99,2066.35,500.16,494.81,22.91,0000 0000 0000 0000 000000
2014-08-22 09:22:36,0.00,6.70,0.00,24.78,28.82,31.11,9.58,49.06,1018.51,2027.97,1512.96,2002.97,2066.07,500.12,494.76,22.95,0000 0000 0000 0000 000000
2014-08-22 09:27:37,0.06,6.70,0.00,24.80,28.84,31.13,9.66,49.17,1018.56,2027.92,1512.58,2002.71,2066.07,500.73,495.30,22.99,0000 0000 0000 0000 000000
2014-08-22 09:32:38,-0.03,6.70,0.00,24.80,28.86,31.15,9.62,48.99,1018.57,2027.59,1512.34,2002.17,2066.01,500.28,494.84,23.03,0000 0000 0000 0000 000000
2014-08-22 09:37:39,-0.07,6.70,0.00,24.82,28.87,31.17,9.64,49.20,1018.57,2027.20,1512.48,2002.04,2066.00,499.98,494.73,23.08,0000 0000 0000 0000 000000
2014-08-22 09:42:41,-0.00,6.70,0.00,24.86,28.90,31.18,9.61,49.02,1018.57,2027.08,1512.27,2002.02,2066.00,500.00,494.49,23.12,0000 0000 0000 0000 000000
2014-08-22 09:47:42,0.01,6.70,0.00,24.88,28.91,31.20,9.64,49.34,1018.57,2027.05,1512.10,2002.01,2065.97,500.16,494.79,23.16,0000 0000 0000 0000 000000
2014-08-22 09:52:43,0.00,6.70,0.00,24.91,28.93,31.22,9.65,49.00,1018.57,2027.03,1512.05,2002.00,2065.95,500.32,494.87,23.20,0000 0000 0000 0000 000000
2014-08-22 09:57:44,0.01,6.70,0.00,24.93,28.95,31.24,9.67,49.10,1018.57,2027.00,1512.02,2002.00,2065.72,500.59,494.95,23.24,0000 0000 0000 0000 000000
2014-08-22 10:02:45,0.02,6.70,0.00,24.96,28.97,31.25,9.62,49.06,1018.57,2027.00,1512.02,2001.98,2065.16,500.38,494.75,23.28,0000 0000 0000 0000 000000
2014-08-22 10:07:46,0.00,6.70,0.00,24.96,28.99,31.28,9.52,49.16,1018.58,2027.00,1512.00,2001.98,2065.02,499.31,493.71,23.33,0000 0000 0000 0000 000000
2014-08-22 10:12:47,0.01,6.70,0.00,24.98,29.01,31.29,9.64,49.38,1018.60,2026.99,1512.00,2001.85,2065.00,500.45,494.79,23.37,0000 0000 0000 0000 000000
2014-08-22 10:17:49,0.03,6.70,0.00,25.01,29.02,31.31,9.61,49.24,1018.65,2026.98,1511.99,2001.49,2065.00,499.94,494.36,23.41,0000 0000 0000 0000 000000
2014-08-22 10:22:50,0.02,6.70,0.00,25.04,29.05,31.32,9.61,49.01,1018.84,2026.97,1511.98,2001.07,2065.00,499.90,494.02,23.45,0000 0000 0000 0000 000000
2014-08-22 10:27:51,-0.00,6.70,0.00,25.07,29.07,31.34,9.71,49.06,1019.01,2026.92,1511.96,2001.03,2064.99,500.72,495.09,23.49,0000 0000 0000 0000 000000
2014-08-22 10:32:52,-0.06,6.70,0.00,25.10,29.09,31.36,9.65,49.02,1019.05,2026.66,1511.93,2001.01,2064.97,500.19,494.65,23.54,0000 0000 0000 0000 000000
2014-08-22 10:37:53,0.01,6.70,0.00,25.14,29.11,31.38,9.61,49.02,1019.05,2026.43,1511.74,2001.00,2064.91,500.25,494.66,23.58,0000 0000 0000 0000 000000
2014-08-22 10:42:55,-0.02,6.70,0.00,25.15,29.14,31.40,9.67,48.92,1019.06,2026.09,1511.57,2001.00,2064.50,500.23,494.60,23.62,0000 0000 0000 0000 000000
2014-08-22 10:47:56,0.02,6.70,0.00,25.18,29.16,31.42,9.58,49.10,1019.06,2026.02,1511.20,2000.98,2064.13,500.02,494.31,23.66,0000 0000 0000 0000 000000
2014-08-22 10:52:57,0.01,6.70,0.00,25.18,29.18,31.44,9.47,48.99,1019.06,2026.03,1511.17,2000.94,2064.05,499.72,493.99,23.70,0000 0000 0000 0000 000000
2014-08-22 10:57:58,0.02,6.70,0.00,25.19,29.20,31.46,9.66,49.13,1019.07,2026.00,1511.04,2000.72,2064.01,500.54,494.77,23.74,0000 0000 0000 0000 000000
2014-08-22 11:02:59,0.03,6.70,0.00,25.18,29.22,31.49,9.58,49.00,1019.08,2026.00,1511.00,2000.25,2064.00,499.62,493.92,23.79,0000 0000 0000 0000 000000
2014-08-22 11:08:00,0.01,6.70,0.00,25.15,29.25,31.52,9.58,49.17,1019.11,2026.00,1511.00,2000.04,2063.99,499.71,494.06,23.83,0000 0000 0000 0000 000000
2014-08-22 11:13:02,-0.00,6.70,0.00,25.12,29.26,31.55,9.64,49.03,1019.08,2025.98,1510.99,2000.02,2063.96,499.65,494.09,23.87,0000 0000 0000 0000 000000
2014-08-22 11:18:02,0.00,6.70,0.00,25.12,29.27,31.57,9.63,49.05,1019.15,2025.95,1510.99,2000.00,2063.81,500.47,494.75,23.91,0000 0000 0000 0000 000000
2014-08-22 11:23:03,-0.00,6.70,0.00,25.11,29.28,31.59,9.58,49.17,1019.28,2025.85,1510.99,2000.00,2063.27,499.83,494.14,23.95,0000 0000 0000 0000 000000
2014-08-22 11:28:05,-0.00,6.70,0.00,25.07,29.30,31.60,9.62,49.16,1019.48,2025.80,1510.99,2000.00,2063.17,499.99,494.64,24.00,0000 0000 0000 0000 000000
2014-08-22 11:33:06,-0.05,6.70,0.00,25.06,29.30,31.60,9.57,49.18,1019.48,2025.45,1510.97,2000.00,2063.06,499.67,494.34,24.04,0000 0000 0000 0000 000000
2014-08-22 11:38:07,0.01,6.70,0.00,25.06,29.31,31.62,9.60,49.03,1019.47,2025.48,1510.96,2000.00,2063.04,499.63,494.31,24.08,0000 0000 0000 0000 000000
2014-08-22 11:43:08,-0.05,6.70,0.00,25.04,29.32,31.63,9.58,49.31,1019.51,2025.18,1510.97,1999.98,2063.01,499.99,494.61,24.12,0000 0000 0000 0000 000000
2014-08-22 11:48:09,0.03,6.70,0.00,25.00,29.32,31.64,9.65,49.21,1019.51,2025.19,1510.83,1999.97,2063.01,500.22,494.88,24.16,0000 0000 0000 0000 000000
2014-08-22 11:53:10,0.01,6.70,0.00,25.00,29.32,31.64,9.64,49.07,1019.49,2025.14,1510.39,1999.98,2063.00,499.91,494.79,24.21,0000 0000 0000 0000 000000
2014-08-22 11:58:11,0.01,6.70,0.00,25.00,29.32,31.63,9.66,49.02,1019.45,2025.18,1510.33,1999.98,2063.00,500.38,495.03,24.25,0000 0000 0000 0000 000000
2014-08-22 12:03:12,0.01,6.70,0.00,24.97,29.32,31.64,9.67,49.09,1019.51,2025.18,1510.19,1999.97,2063.00,500.06,494.94,24.29,0000 0000 0000 0000 000000
2014-08-22 12:08:14,-0.00,6.70,0.00,24.96,29.32,31.65,9.66,49.04,1019.53,2025.08,1510.03,1999.83,2063.00,499.55,494.27,24.33,0000 0000 0000 0000 000000
2014-08-22 12:13:15,0.01,6.70,0.00,24.96,29.33,31.66,9.64,49.11,1019.54,2025.06,1510.03,1999.73,2063.00,500.04,495.00,24.37,0000 0000 0000 0000 000000
2014-08-22 12:18:16,-0.00,6.70,0.00,24.93,29.33,31.65,9.60,48.98,1019.54,2025.08,1510.01,1999.63,2063.00,499.90,494.80,24.41,0000 0000 0000 0000 000000
2014-08-22 12:23:17,0.01,6.70,0.00,24.93,29.33,31.64,9.62,48.89,1019.55,2025.05,1510.01,1999.36,2063.00,499.95,494.85,24.46,0000 0000 0000 0000 000000
2014-08-22 12:28:18,0.00,6.70,0.00,24.94,29.33,31.63,9.61,49.18,1019.54,2025.03,1510.06,1999.23,2062.95,499.78,494.76,24.50,0000 0000 0000 0000 000000
2014-08-22 12:33:20,0.01,6.70,0.00,24.91,29.33,31.64,9.65,49.26,1019.55,2025.01,1510.02,1999.08,2062.92,500.22,495.10,24.54,0000 0000 0000 0000 000000
2014-08-22 12:38:21,-0.00,6.71,0.00,24.89,29.32,31.63,9.64,49.28,1019.55,2025.02,1510.00,1999.06,2062.94,500.05,495.13,24.58,0000 0000 0000 0000 000000
2014-08-22 12:43:22,-0.00,6.71,0.00,24.89,29.32,31.64,9.67,49.10,1019.55,2025.03,1510.01,1999.08,2062.95,500.24,495.25,24.62,0000 0000 0000 0000 000000
2014-08-22 12:48:24,0.00,6.71,0.00,24.88,29.32,31.64,9.65,49.33,1019.55,2025.00,1510.19,1999.11,2062.43,500.39,495.27,24.67,0000 0000 0000 0000 000000
2014-08-22 12:53:25,0.00,6.71,0.00,24.86,29.32,31.63,9.63,49.37,1019.55,2025.00,1510.00,1999.04,2062.69,500.45,495.41,24.71,0000 0000 0000 0000 000000
2014-08-22 12:58:26,-0.00,6.71,0.00,24.85,29.32,31.62,9.64,49.13,1019.55,2025.00,1510.00,1999.06,2062.69,499.96,494.99,24.75,0000 0000 0000 0000 000000